Mount Pleasant, SC

3:40 PM EST on November 19, 2017 (GMT -0500)
Mount Pleasant

Weather History for KLRO - October, 2012

Change the Weather History Date:

Tuesday, October 30, 2012

  Actual Average (KCHS) Record (KCHS)
Temperature  
Mean Temperature 52 °F -  
Max Temperature 59 °F 72 °F 85 °F (1940)
Min Temperature 46 °F 52 °F 27 °F (1952)
Degree Days  
Heating Degree Days 12    
Growing Degree Days 2 (Base 50)    
Moisture  
Dew Point 33 °F    
Average Humidity 48    
Maximum Humidity 62    
Minimum Humidity 36    
Precipitation  
Precipitation 0.00 in - - ()
Sea Level Pressure  
Sea Level Pressure 29.62 in    
Wind  
Wind Speed 11 mph (West)    
Max Wind Speed 17 mph    
Max Gust Speed 24 mph    
Visibility 10 miles    
Events      
Averages and records for this station are not official NWS values.
T = Trace of Precipitation, MM = Missing Value Source: NWS Daily Summary

Daily Weather History Graph

Daily Weather History Graph

Search for Another Location

Airport or City:

Trip Planner

Search our weather history database for the weather conditions in past years. The results will help you decide how hot, cold, wet, or windy it might be!

Date:

Astronomy

Oct. 30, 2012 Rise Set
Actual Time 7:35 AM EDT 6:29 PM EDT
Civil Twilight 7:10 AM EDT 6:54 PM EDT
Nautical Twilight 6:41 AM EDT 7:23 PM EDT
Astronomical Twilight 6:12 AM EDT 7:52 PM EDT
Moon 7:02 PM EDT (10/30) 8:16 AM EDT (10/30)
Length of Visible Light 11h 44m
Length of Day
10h 53m
Full, 99% of the Moon is Illuminated
Oct 30
Full
Nov 6
Last Quarter
Nov 13
New
Nov 20
First Quarter
Nov 28
Full

Hourly Weather History & Observations

Time (EDT) Temp. Windchill Dew Point Humidity Pressure Visibility Wind Dir Wind Speed Gust Speed Precip Events Conditions
12:35 AM 51.8 °F - 35.6 °F 54% 29.60 in 10.0 mi West 9.2 mph 16.1 mph N/A   Clear
12:55 AM 51.8 °F - 33.8 °F 50% 29.60 in 10.0 mi West 10.4 mph 20.7 mph N/A   Scattered Clouds
1:15 AM 51.8 °F - 33.8 °F 50% 29.60 in 10.0 mi West 9.2 mph 20.7 mph N/A   Partly Cloudy
1:35 AM 50.0 °F - 35.6 °F 58% 29.59 in 10.0 mi West 9.2 mph - N/A   Clear
1:55 AM 48.2 °F - 35.6 °F 62% 29.58 in 10.0 mi West 9.2 mph 17.3 mph N/A   Clear
2:15 AM 48.2 °F - 35.6 °F 62% 29.58 in 10.0 mi West 11.5 mph 18.4 mph N/A   Clear
2:35 AM 48.2 °F - 35.6 °F 62% 29.57 in 10.0 mi West 10.4 mph 18.4 mph N/A   Clear
3:15 AM 48.2 °F - 35.6 °F 62% 29.56 in 10.0 mi West 10.4 mph - N/A   Clear
3:35 AM 48.2 °F - 35.6 °F 62% 29.56 in 10.0 mi West 10.4 mph 19.6 mph N/A   Clear
3:55 AM 48.2 °F - 35.6 °F 62% 29.56 in 10.0 mi West 11.5 mph 17.3 mph N/A   Clear
4:35 AM 48.2 °F - 33.8 °F 58% 29.56 in 10.0 mi West 10.4 mph 18.4 mph N/A   Clear
4:55 AM 48.2 °F - 33.8 °F 58% 29.55 in 10.0 mi West 8.1 mph 17.3 mph N/A   Clear
5:15 AM 48.2 °F - 33.8 °F 58% 29.56 in 10.0 mi West 10.4 mph 16.1 mph N/A   Clear
5:35 AM 46.4 °F 41.1 °F 33.8 °F 62% 29.56 in 10.0 mi West 11.5 mph 19.6 mph N/A   Clear
6:15 AM 46.4 °F 41.1 °F 32.0 °F 57% 29.56 in 10.0 mi West 11.5 mph - N/A   Clear
6:35 AM 46.4 °F 41.1 °F 32.0 °F 57% 29.57 in 10.0 mi West 11.5 mph 19.6 mph N/A   Clear
6:55 AM 46.4 °F 41.9 °F 32.0 °F 57% 29.57 in 10.0 mi West 9.2 mph - N/A   Clear
7:15 AM 46.4 °F 41.1 °F 32.0 °F 57% 29.58 in 10.0 mi West 11.5 mph 17.3 mph N/A   Clear
7:35 AM 46.4 °F 41.5 °F 32.0 °F 57% 29.58 in 10.0 mi West 10.4 mph - N/A   Clear
7:55 AM 46.4 °F 41.9 °F 32.0 °F 57% 29.59 in 10.0 mi West 9.2 mph - N/A   Clear
8:15 AM 48.2 °F - 32.0 °F 54% 29.60 in 10.0 mi West 12.7 mph 17.3 mph N/A   Partly Cloudy
8:35 AM 48.2 °F - 32.0 °F 54% 29.60 in 10.0 mi West 9.2 mph 19.6 mph N/A   Mostly Cloudy
8:55 AM 48.2 °F - 32.0 °F 54% 29.61 in 10.0 mi West 11.5 mph 21.9 mph N/A   Mostly Cloudy
9:35 AM 50.0 °F - 32.0 °F 50% 29.61 in 10.0 mi West 12.7 mph 19.6 mph N/A   Scattered Clouds
9:55 AM 50.0 °F - 32.0 °F 50% 29.62 in 10.0 mi West 16.1 mph 21.9 mph N/A   Partly Cloudy
10:15 AM 51.8 °F - 32.0 °F 47% 29.62 in 10.0 mi West 11.5 mph 18.4 mph N/A   Clear
10:35 AM 51.8 °F - 32.0 °F 47% 29.62 in 10.0 mi West 13.8 mph 19.6 mph N/A   Partly Cloudy
10:55 AM 51.8 °F - 32.0 °F 47% 29.62 in 10.0 mi West 15.0 mph 20.7 mph N/A   Partly Cloudy
11:35 AM 53.6 °F - 33.8 °F 47% 29.62 in 10.0 mi West 10.4 mph 16.1 mph N/A   Clear
11:55 AM 55.4 °F - 33.8 °F 44% 29.61 in 10.0 mi West 10.4 mph 19.6 mph N/A   Partly Cloudy
12:15 PM 55.4 °F - 33.8 °F 44% 29.61 in 10.0 mi WSW 12.7 mph 18.4 mph N/A   Partly Cloudy
12:35 PM 55.4 °F - 33.8 °F 44% 29.60 in 10.0 mi West 15.0 mph 20.7 mph N/A   Clear
12:55 PM 55.4 °F - 33.8 °F 44% 29.60 in 10.0 mi West 13.8 mph 19.6 mph N/A   Partly Cloudy
1:15 PM 55.4 °F - 35.6 °F 47% 29.59 in 10.0 mi WSW 17.3 mph 23.0 mph N/A   Partly Cloudy
1:35 PM 55.4 °F - 35.6 °F 47% 29.59 in 10.0 mi West 11.5 mph 18.4 mph N/A   Clear
1:55 PM 55.4 °F - 35.6 °F 47% 29.59 in 10.0 mi WSW 12.7 mph 20.7 mph N/A   Clear
2:15 PM 55.4 °F - 35.6 °F 47% 29.58 in 10.0 mi WSW 16.1 mph 21.9 mph N/A   Clear
2:35 PM 55.4 °F - 35.6 °F 47% 29.58 in 10.0 mi WSW 12.7 mph 23.0 mph N/A   Partly Cloudy
2:55 PM 57.2 °F - 35.6 °F 44% 29.58 in 10.0 mi West 11.5 mph 23.0 mph N/A   Clear
3:35 PM 57.2 °F - 32.0 °F 38% 29.58 in 10.0 mi West 16.1 mph 20.7 mph N/A   Clear
3:55 PM 59.0 °F - 32.0 °F 36% 29.58 in 10.0 mi West 15.0 mph 21.9 mph N/A   Clear
4:15 PM 59.0 °F - 32.0 °F 36% 29.58 in 10.0 mi WNW 12.7 mph 23.0 mph N/A   Clear
4:35 PM 59.0 °F - 32.0 °F 36% 29.59 in 10.0 mi WNW 17.3 mph 24.2 mph N/A   Clear
4:55 PM 59.0 °F - 32.0 °F 36% 29.60 in 10.0 mi West 17.3 mph 24.2 mph N/A   Clear
5:35 PM 57.2 °F - 32.0 °F 38% 29.60 in 10.0 mi West 9.2 mph - N/A   Clear
5:55 PM 57.2 °F - 32.0 °F 38% 29.61 in 10.0 mi West 11.5 mph - N/A   Clear
6:15 PM 57.2 °F - 30.2 °F 36% 29.62 in 10.0 mi West 11.5 mph 18.4 mph N/A   Clear
6:35 PM 55.4 °F - 30.2 °F 38% 29.63 in 10.0 mi West 10.4 mph 17.3 mph N/A   Clear
7:15 PM 55.4 °F - 32.0 °F 41% 29.65 in 10.0 mi West 8.1 mph - N/A   Clear
7:35 PM 55.4 °F - 32.0 °F 41% 29.66 in 10.0 mi West 11.5 mph - N/A   Clear
8:15 PM 55.4 °F - 32.0 °F 41% 29.68 in 10.0 mi WSW 8.1 mph - N/A   Clear
8:35 PM 55.4 °F - 32.0 °F 41% 29.69 in 10.0 mi West 6.9 mph - N/A   Clear
8:55 PM 53.6 °F - 32.0 °F 44% 29.70 in 10.0 mi West 8.1 mph - N/A   Clear
9:15 PM 53.6 °F - 32.0 °F 44% 29.71 in 10.0 mi West 6.9 mph - N/A   Clear
9:35 PM 53.6 °F - 32.0 °F 44% 29.72 in 10.0 mi West 5.8 mph - N/A   Clear
9:55 PM 53.6 °F - 32.0 °F 44% 29.73 in 10.0 mi West 4.6 mph - N/A   Partly Cloudy
10:15 PM 51.8 °F - 32.0 °F 47% 29.74 in 10.0 mi West 8.1 mph - N/A   Clear
10:35 PM 53.6 °F - 30.2 °F 41% 29.74 in 10.0 mi West 9.2 mph - N/A   Clear
11:15 PM 53.6 °F - 30.2 °F 41% 29.75 in 10.0 mi West 10.4 mph 17.3 mph N/A   Partly Cloudy
11:35 PM 51.8 °F - 28.4 °F 41% 29.75 in 10.0 mi West 11.5 mph 18.4 mph N/A   Partly Cloudy
11:55 PM 51.8 °F - 28.4 °F 41% 29.75 in 10.0 mi West 8.1 mph - N/A   Clear